EW4218 Weather Reports


Display with metric or nautical units.
time (UTC)temp
F
wind
direction
speed
MPH
gust
MPH
rain 1hr
in
rain 24hr
in
rain mn
in
humidity
%
barometer
mb
20200406162834 68 353 7.0 11.0 0.00 0.00 0.00 73 1016.8
20200406161934 68 197 8.0 12.0 0.00 0.00 0.00 75 1016.7
20200406161034 68 195 7.0 12.0 0.00 0.00 0.00 76 1016.8
20200406160134 68 224 5.0 12.0 0.00 0.00 0.00 75 1017.2
20200406155234 68 220 5.0 12.0 0.00 0.00 0.00 74 1017.4
20200406154334 68 227 6.0 13.0 0.00 0.00 0.00 74 1017.5
20200406153434 68 226 5.0 11.0 0.00 0.00 0.00 75 1017.6
20200406152534 68 261 4.0 10.0 0.00 0.00 0.00 76 1017.6
20200406151634 67 223 6.0 10.0 0.00 0.00 0.00 77 1017.8
20200406150734 67 235 5.0 10.0 0.00 0.00 0.00 78 1017.8
20200406145834 66 237 7.0 13.0 0.00 0.00 0.00 80 1017.8
20200406144934 64 232 7.0 13.0 0.00 0.00 0.00 82 1017.9
20200406144034 64 355 7.0 11.0 0.00 0.00 0.00 82 1017.9
20200406143134 64 357 8.0 14.0 0.00 0.00 0.00 81 1018.1
20200406142234 64 341 8.0 13.0 0.00 0.00 0.00 81 1018.1
20200406141334 64 354 6.0 11.0 0.00 0.00 0.00 80 1018.1
20200406140434 63 353 9.0 16.0 0.00 0.00 0.00 80 1018.1
20200406135534 63 359 10.0 20.0 0.00 0.00 0.00 81 1018.2
20200406134634 63 355 8.0 15.0 0.00 0.00 0.00 81 1018.2
20200406133734 63 353 9.0 17.0 0.00 0.00 0.00 81 1018.3
20200406132834 62 359 7.0 13.0 0.00 0.00 0.00 82 1018.4
20200406131934 61 359 8.0 12.0 0.00 0.00 0.00 83 1018.4
20200406131034 60 359 7.0 10.0 0.00 0.00 0.00 84 1018.4
20200406130134 60 359 7.0 13.0 0.00 0.00 0.00 85 1018.4
20200406125234 59 360 6.0 10.0 0.00 0.00 0.00 86 1018.5
20200406124334 59 360 6.0 9.0 0.00 0.00 0.00 88 1018.5
20200406123434 58 360 4.0 8.0 0.00 0.00 0.00 88 1018.5
20200406122534 58 360 5.0 8.0 0.00 0.00 0.00 89 1018.6
20200406121634 57 360 4.0 7.0 0.00 0.00 0.00 90 1018.6
20200406120734 57 360 5.0 6.0 0.00 0.00 0.00 91 1018.5
20200406115834 56 13 5.0 7.0 0.00 0.00 0.00 91 1018.5
20200406114934 56 4 5.0 6.0 0.00 0.00 0.00 91 1018.5
20200406114034 56 360 5.0 6.0 0.00 0.00 0.00 91 1018.4
20200406113134 56 360 5.0 6.0 0.00 0.00 0.00 91 1018.4
20200406112234 56 360 5.0 6.0 0.00 0.00 0.00 92 1018.3
20200406111334 56 360 5.0 6.0 0.00 0.00 0.00 92 1018.2
20200406110434 56 360 5.0 6.0 0.00 0.00 0.00 92 1018.2
20200406105534 56 360 4.0 6.0 0.00 0.00 0.00 92 1018.1
20200406104634 56 360 4.0 6.0 0.00 0.00 0.00 92 1017.9
20200406103734 56 360 4.0 6.0 0.00 0.00 0.00 92 1017.9
20200406102834 56 360 3.0 6.0 0.00 0.00 0.00 92 1017.9
20200406101934 56 360 3.0 6.0 0.00 0.00 0.00 91 1017.8
20200406101034 56 360 4.0 6.0 0.00 0.00 0.00 91 1017.8
20200406100134 56 360 4.0 6.0 0.00 0.00 0.00 91 1017.8
20200406095237 56 360 4.0 6.0 0.00 0.00 0.00 91 1017.6
20200406094334 56 360 4.0 6.0 0.00 0.00 0.00 91 1017.7
20200406093434 56 360 4.0 5.0 0.00 0.00 0.00 91 1017.6
20200406092535 56 360 4.0 6.0 0.00 0.00 0.00 91 1017.5
20200406091634 56 360 4.0 6.0 0.00 0.00 0.00 91 1017.5
20200406090734 56 360 5.0 7.0 0.00 0.00 0.00 91 1017.5
20200406085834 56 360 5.0 8.0 0.00 0.00 0.00 91 1017.5
20200406084934 56 360 5.0 7.0 0.00 0.00 0.00 91 1017.6
20200406084034 56 360 5.0 7.0 0.00 0.00 0.00 92 1017.6
20200406082234 56 360 5.0 7.0 0.00 0.00 0.00 92 1017.7
20200406081333 56 360 5.0 7.0 0.00 0.00 0.00 92 1017.8
20200406080433 56 360 3.0 6.0 0.00 0.00 0.00 91 1017.7
20200406075533 56 360 4.0 6.0 0.00 0.00 0.00 91 1017.8
20200406074634 56 360 4.0 6.0 0.00 0.00 0.00 91 1017.8
20200406073734 56 360 4.0 6.0 0.00 0.00 0.00 91 1017.9
20200406072834 56 360 3.0 5.0 0.00 0.00 0.00 91 1017.9
20200406071942 56 360 5.0 7.0 0.00 0.00 0.00 91 1018.1
20200406071033 56 360 4.0 6.0 0.00 0.00 0.00 91 1018.0
20200406070134 56 360 6.0 8.0 0.00 0.00 0.00 91 1018.1
20200406065234 56 360 5.0 8.0 0.00 0.00 0.00 91 1018.0
20200406064334 56 360 5.0 7.0 0.00 0.00 0.00 91 1018.2
20200406063434 56 360 4.0 7.0 0.00 0.00 0.00 91 1018.2
20200406062534 56 360 3.0 5.0 0.00 0.00 0.00 92 1018.2
20200406061634 56 360 3.0 6.0 0.00 0.00 0.00 91 1018.4
20200406060734 56 360 4.0 6.0 0.00 0.00 0.00 92 1018.4
20200406055834 56 360 4.0 6.0 0.00 0.00 0.00 92 1018.3
20200406054934 56 360 4.0 6.0 0.00 0.00 0.00 92 1018.3
20200406054034 56 360 3.0 5.0 0.00 0.00 0.00 92 1018.3
20200406053134 56 360 3.0 5.0 0.00 0.00 0.00 91 1018.3
20200406052234 56 360 3.0 5.0 0.00 0.00 0.00 91 1018.3
20200406051334 56 360 4.0 6.0 0.00 0.00 0.00 91 1018.4
20200406050434 56 360 4.0 6.0 0.00 0.00 0.00 91 1018.5
20200406045555 56 360 4.0 6.0 0.00 0.00 0.00 91 1018.5
20200406044634 56 360 4.0 6.0 0.00 0.00 0.00 90 1018.6
20200406043734 56 360 4.0 6.0 0.00 0.00 0.00 90 1018.7
20200406042834 56 360 4.0 6.0 0.00 0.00 0.00 90 1018.7
20200406041934 57 360 3.0 6.0 0.00 0.00 0.00 90 1018.7
20200406041034 57 360 3.0 5.0 0.00 0.00 0.00 90 1018.7
20200406040134 57 360 3.0 5.0 0.00 0.00 0.00 89 1018.8
20200406035234 57 360 3.0 5.0 0.00 0.00 0.00 89 1018.8
20200406034334 57 360 4.0 7.0 0.00 0.00 0.00 88 1018.8
20200406033434 57 360 4.0 6.0 0.00 0.00 0.00 88 1018.8
20200406032537 57 360 3.0 5.0 0.00 0.00 0.00 88 1018.8
20200406031634 58 360 3.0 5.0 0.00 0.00 0.00 88 1018.8
20200406030734 58 360 4.0 7.0 0.00 0.00 0.00 87 1018.7
20200406025834 58 360 6.0 8.0 0.00 0.00 0.00 87 1018.6
20200406024934 58 360 6.0 9.0 0.00 0.00 0.00 88 1018.6
20200406024034 58 360 6.0 9.0 0.00 0.00 0.00 88 1018.5
20200406023134 57 360 4.0 6.0 0.00 0.00 0.00 89 1018.6
20200406022234 57 360 4.0 6.0 0.00 0.00 0.00 88 1018.7
20200406021334 57 360 4.0 6.0 0.00 0.00 0.00 88 1018.7
20200406020434 58 360 6.0 8.0 0.00 0.00 0.00 88 1018.8
20200406015534 58 360 7.0 9.0 0.00 0.00 0.00 87 1018.7
20200406014634 58 360 7.0 10.0 0.00 0.00 0.00 87 1018.7
20200406013734 58 360 7.0 9.0 0.00 0.00 0.00 86 1018.7
20200406012834 58 360 8.0 10.0 0.00 0.00 0.00 85 1018.6
20200406011934 58 360 8.0 11.0 0.00 0.00 0.00 85 1018.5
20200406011034 58 360 7.0 10.0 0.00 0.00 0.00 84 1018.5
20200406010134 58 360 6.0 9.0 0.00 0.00 0.00 84 1018.4
20200406005234 58 360 5.0 7.0 0.00 0.00 0.00 85 1018.3
20200406004336 58 360 6.0 7.0 0.00 0.00 0.00 84 1018.2
20200406003434 58 360 6.0 9.0 0.00 0.00 0.00 83 1018.2
20200406002534 59 360 7.0 10.0 0.00 0.00 0.00 84 1018.0
20200406001634 59 360 8.0 11.0 0.00 0.00 0.00 84 1018.0
20200406000734 59 360 8.0 12.0 0.00 0.00 0.00 83 1018.0
20200405235834 59 360 7.0 10.0 0.00 0.00 0.00 82 1018.0
20200405234934 60 360 7.0 10.0 0.00 0.00 0.00 82 1018.0
20200405234034 60 360 7.0 9.0 0.00 0.00 0.00 80 1017.9
20200405233134 60 360 7.0 10.0 0.00 0.00 0.00 78 1017.8
20200405232234 60 360 7.0 9.0 0.00 0.00 0.00 77 1017.9
20200405231334 60 360 8.0 11.0 0.00 0.00 0.00 75 1017.9
20200405230434 61 360 8.0 12.0 0.00 0.00 0.00 73 1017.7
20200405225535 61 360 9.0 13.0 0.00 0.00 0.00 72 1017.8
20200405224634 61 360 8.0 12.0 0.00 0.00 0.00 71 1017.6
20200405223734 62 2 7.0 10.0 0.00 0.00 0.00 75 1017.6
20200405222834 62 360 8.0 10.0 0.00 0.00 0.00 73 1017.7
20200405221934 62 360 9.0 12.0 0.00 0.00 0.00 74 1017.6